星链-30080 (STARLINK-30080 )

导读

STARLINK-30080是美国太空探索技术公司(SpaceX)星链互联网卫星星座的一员,于2023年5月19日发射升空。星链项目旨在构建全球卫星互联网网络,为偏远地区提供互联网接入服务,该卫星的入轨进一步扩充了星链星座的规模,助力推进全球网络覆盖目标实现。

基本信息
目录编号:
56705
目录名称:
STARLINK-30080
国际标识:
2023-067T
轨道中心:
EARTH
卫星名称:
星链-30080
卫星全名:
星链-30080 (STARLINK-30080 )
卫星状态:
在轨 (已飞行1126 天)
发射日期:
2023-05-19 UTC
国别 :
美国 (US)
星等 :
--
轨道信息
数据来源 国际轨道数据
星历时间: 2026-06-16T18:23:57+0800
2天前
查看轨道信息
半长轴: 6861.2km
偏心率: 0.0000128
轨道倾角: 42.988°
近地点辐角 59.596°
升交点赤经 65.406°
平近点角 300.491°
近地点: 482.975km
远地点: 483.151km
周期: 94.267分钟
每日圈数: 15.275755
详细信息
固有亮度:
5
最大亮度:
0.3
卫星平台:
Starlink v2.0 mini
覆盖范围:
全球
运营商:
太空探索技术公司
运营商所在国:
美国
制造商(研发单位):
太空探索技术公司
制造商所在国:
美国
使用方式:
暂无
卫星简介
星链(Starlink)计划是由太空探索技术公司(SpaceX)提出的一个巨型低轨卫星互联网星座项目,计划在2019年至2024年间在太空搭建由约1.2万颗卫星组成的“星链”网络,其中1584颗将部署在地球上空550千米处的近地轨道,并从2020年开始工作。该卫星仍在工作。
2D轨道图
3D轨道图
轨道高度分析图
轨道倾角分析图
轨道综合分析图
查看轨道综合分析图